Location: Shandelee
(41.8790°N, 74.8713°W)
Time: 03:49:05
(UTC+00:00)

Cosmos 968 Rocket - Pass Details

Date: 29 October 2020
Orbit: 741 x 770 km, 74.0° (Epoch: 23 November)

Event Time Altitude Azimuth Distance (km) Brightness Sun altitude
Rises 23:17:55 0° 339° (NNW) 3,234 7.0 -15.6°
Reaches altitude 10° 23:20:18 10° 339° (NNW) 2,299 6.2 -16.1°
Maximum altitude 23:25:32 83° 252° (WSW) 766 3.5 -17.0°
Drops below altitude 10° 23:30:40 10° 165° (SSE) 2,263 5.8 -18.0°
Sets 23:33:00 0° 165° (SSE) 3,179 6.6 -18.4°
